TimeCDT,TemperatureF,Dew PointF,Humidity,Sea Level PressureIn,VisibilityMPH,Wind Direction,Wind SpeedMPH,Gust SpeedMPH,PrecipitationIn,Events,Conditions,WindDirDegrees,DateUTC
12:53 AM,26.1,12.0,55,30.33,10.0,Calm,Calm,-,N/A,,Clear,0,2013-03-28 05:53:00
1:53 AM,17.1,10.0,74,30.34,10.0,West,3.5,-,N/A,,Clear,260,2013-03-28 06:53:00
2:53 AM,15.1,10.0,80,30.34,10.0,West,3.5,-,N/A,,Clear,260,2013-03-28 07:53:00
3:53 AM,14.0,9.0,80,30.34,10.0,WSW,4.6,-,N/A,,Clear,250,2013-03-28 08:53:00
4:53 AM,12.9,8.1,81,30.34,10.0,WSW,3.5,-,N/A,,Clear,240,2013-03-28 09:53:00
5:53 AM,10.9,7.0,84,30.35,10.0,WSW,4.6,-,N/A,,Clear,250,2013-03-28 10:53:00
6:53 AM,10.0,6.1,84,30.35,10.0,West,5.8,-,N/A,,Clear,270,2013-03-28 11:53:00
7:53 AM,25.0,12.0,58,30.35,10.0,West,6.9,-,N/A,,Clear,280,2013-03-28 12:53:00
8:53 AM,28.9,14.0,54,30.35,10.0,West,5.8,-,N/A,,Clear,280,2013-03-28 13:53:00
9:53 AM,36.0,14.0,41,30.35,10.0,NW,5.8,-,N/A,,Clear,320,2013-03-28 14:53:00
10:53 AM,37.9,15.1,39,30.35,10.0,West,9.2,-,N/A,,Clear,260,2013-03-28 15:53:00
11:53 AM,39.9,14.0,35,30.33,10.0,WNW,6.9,-,N/A,,Clear,290,2013-03-28 16:53:00
12:53 PM,41.0,16.0,36,30.32,10.0,WSW,5.8,-,N/A,,Clear,250,2013-03-28 17:53:00
1:53 PM,42.1,15.1,34,30.32,10.0,West,6.9,-,N/A,,Clear,260,2013-03-28 18:53:00
2:53 PM,43.0,14.0,31,30.31,10.0,Variable,5.8,-,N/A,,Clear,0,2013-03-28 19:53:00
3:53 PM,43.0,12.9,30,30.30,10.0,Calm,Calm,-,N/A,,Clear,0,2013-03-28 20:53:00
4:53 PM,44.1,15.1,31,30.29,10.0,WNW,3.5,-,N/A,,Clear,290,2013-03-28 21:53:00
5:53 PM,44.1,14.0,30,30.29,10.0,Variable,3.5,-,N/A,,Clear,0,2013-03-28 22:53:00
6:53 PM,42.1,12.9,31,30.30,10.0,North,4.6,-,N/A,,Clear,350,2013-03-28 23:53:00
7:53 PM,39.9,12.9,33,30.29,10.0,Calm,Calm,-,N/A,,Clear,0,2013-03-29 00:53:00
8:53 PM,37.0,14.0,39,30.30,10.0,NNW,3.5,-,N/A,,Clear,340,2013-03-29 01:53:00
9:53 PM,35.1,16.0,46,30.31,10.0,North,3.5,-,N/A,,Clear,350,2013-03-29 02:53:00
10:53 PM,28.0,16.0,61,30.31,10.0,Calm,Calm,-,N/A,,Clear,0,2013-03-29 03:53:00
11:53 PM,26.1,16.0,66,30.32,10.0,Calm,Calm,-,N/A,,Clear,0,2013-03-29 04:53:00